Wind_Speed
41 40 42 43 38 39 40 43 40 36 35 38 42 42 44 40 41 42 41 40 40 40 41 42 43 43 43 42 42 43 45 44 45 48 53 56 59 61 64 67 70 73 75
40 39 39 37 33 32 33 33 32 33 37 41 38 38 38 41 42 44 44 43 41 41 42 44 47 49 49 49 50 50 49 51 49 51 53 56 63 63 67 70 73 75 77
39 37 36 31 30 31 32 31 34 36 38 36 34 33 33 32 35 38 39 40 41 43 43 45 46 47 49 50 51 52 55 58 60 59 59 60 63 65 71 74 78 80 82
39 38 34 32 33 33 32 30 31 30 32 31 31 31 32 32 33 34 34 36 37 40 42 45 47 49 51 53 54 55 57 59 62 66 66 67 67 66 65 73 81 85 88
39 39 36 36 38 36 33 32 32 29 29 29 30 31 32 33 34 36 39 40 41 43 46 49 51 54 56 58 60 61 62 63 66 69 73 76 76 76 73 72 80 87 92
42 42 40 41 38 37 34 35 33 31 33 33 33 35 37 37 40 41 43 46 49 51 54 56 59 62 63 65 66 67 69 71 73 74 76 77 79 82 84 85 87 88 92
44 43 42 43 40 38 37 34 34 35 36 36 36 38 39 40 42 45 48 51 55 58 60 62 65 67 70 71 73 74 76 77 79 80 82 84 87 89 91 93 91 92 91
46 44 44 44 41 40 40 37 37 38 39 41 40 40 43 45 47 49 53 56 59 63 66 70 72 74 76 77 78 80 81 82 84 85 88 89 94 97 100 100 98 91 90
47 45 45 44 43 42 41 38 40 41 41 41 41 42 46 50 53 56 60 63 67 69 72 75 78 81 82 82 83 84 84 85 87 90 92 96 98 100 101 101 101 101 95
48 46 45 45 46 43 41 40 40 42 41 44 46 48 51 56 59 62 66 69 72 75 78 82 85 87 88 88 88 87 88 90 93 95 97 98 100 100 103 106 107 108 107
47 45 47 48 46 43 43 43 42 43 45 48 50 54 59 62 66 69 72 75 78 81 85 90 92 92 92 91 89 90 92 94 96 98 98 99 103 106 107 108 108 110 115
47 47 48 45 45 45 46 46 47 47 50 53 56 59 64 68 72 75 78 82 84 87 92 96 95 94 92 91 92 94 94 96 96 97 101 106 106 107 108 110 114 118 123
48 49 49 46 46 47 49 50 51 52 55 60 63 66 71 75 79 81 84 87 90 94 98 96 95 93 93 95 95 95 96 97 101 104 103 104 106 110 114 119 122 126 129
52 52 50 48 49 50 52 54 55 58 62 65 68 73 77 81 83 86 89 91 96 99 98 95 93 95 95 95 95 97 99 101 102 103 104 109 114 118 122 125 128 131 131
54 54 53 52 52 53 56 59 60 63 66 71 75 79 82 85 87 91 93 98 99 98 95 94 94 96 96 97 99 99 100 101 102 107 112 118 122 125 129 132 131 124 116
56 56 56 56 56 58 60 62 65 68 72 76 80 83 85 89 92 95 98 99 95 93 94 95 94 96 98 99 101 100 101 104 110 114 119 124 127 132 133 126 116 113 107
57 58 58 59 61 62 64 66 69 74 77 80 82 86 90 93 96 99 97 91 91 92 92 94 96 99 101 100 101 103 108 113 118 122 125 130 135 130 117 112 108 106 105
57 58 60 62 64 65 67 70 74 77 79 82 87 90 94 97 97 91 89 90 90 90 93 96 99 99 98 101 106 112 116 120 124 128 133 133 124 114 109 102 100 98 96
59 61 63 64 65 68 71 74 76 79 84 88 91 94 95 91 86 87 88 89 90 93 96 98 95 98 104 110 116 120 122 126 128 133 130 119 110 106 102 96 92 89 86
58 60 62 64 66 71 74 76 81 84 88 90 92 87 82 83 85 86 87 89 92 94 94 94 99 105 112 118 122 124 128 130 129 123 116 110 105 101 95 90 84 80 76
59 61 65 68 71 74 78 82 85 88 88 83 79 80 81 82 83 85 89 90 89 88 95 100 108 114 120 123 127 130 133 127 118 112 105 102 97 91 86 81 76 71 69
64 67 70 72 76 79 82 84 84 80 77 77 77 79 80 81 84 87 85 84 89 94 101 107 114 120 125 130 132 133 127 120 111 105 101 93 88 84 78 73 69 65 60
69 72 74 76 78 80 79 76 73 73 73 74 77 77 81 84 82 79 85 90 96 101 107 112 117 123 129 131 129 122 114 107 104 101 93 87 81 76 70 66 62 58 52
72 73 74 75 73 71 69 69 69 70 73 75 77 80 79 76 79 85 90 97 103 108 113 119 125 128 129 124 115 108 104 99 96 90 86 80 74 70 64 59 54 49 44
65 64 62 62 62 64 65 67 70 72 73 75 75 72 73 79 85 92 98 104 110 114 120 127 128 125 119 111 103 100 95 89 85 81 77 73 67 61 57 51 45 41 38
56 56 58 61 64 65 68 69 70 72 71 69 68 73 78 84 91 97 103 110 116 123 130 129 125 119 112 103 97 94 89 83 80 75 71 65 60 55 48 43 38 34 31
Wind_Direction
240 241 242 242 241 245 248 252 255 260 267 271 275 279 282 278 278 279 284 290 292 291 291 293 292 293 291 291 292 292 291 288 287 285 283 282 280 280 280 279 278 278 278
237 241 239 239 243 246 250 257 259 267 269 272 274 279 281 275 280 279 279 282 289 290 291 293 293 293 292 292 290 288 287 285 283 282 283 284 286 284 283 282 282 282 283
234 233 234 237 241 244 249 254 259 262 267 269 271 276 281 286 286 284 283 284 286 289 290 291 290 291 291 289 287 286 285 285 284 281 279 278 278 280 284 284 283 282 281
227 229 230 231 233 235 241 248 254 258 263 267 272 278 281 282 284 286 288 290 293 294 295 296 296 296 296 295 293 290 288 286 285 285 281 279 277 275 274 279 280 281 280
224 225 224 226 229 235 240 245 251 257 262 267 271 276 279 282 286 290 294 298 300 301 301 302 303 302 300 298 297 296 293 290 288 286 286 284 283 279 274 270 270 275 276
218 220 222 226 230 237 244 248 255 259 264 268 272 278 283 288 291 294 298 302 303 304 304 304 303 301 301 300 299 299 297 294 291 288 287 285 284 282 283 283 281 280 277
216 219 222 228 233 239 244 252 257 261 268 273 277 282 286 291 294 299 302 303 304 306 305 305 305 304 303 303 301 301 299 296 294 292 291 290 289 288 287 286 283 282 281
216 219 225 231 237 242 246 255 259 266 272 277 280 284 289 294 298 300 300 301 303 304 305 306 306 306 306 304 303 301 299 297 295 294 293 292 291 292 292 290 288 284 283
218 221 230 236 242 248 252 259 264 269 272 276 279 284 290 295 298 301 303 303 303 304 306 306 307 307 306 305 303 302 300 298 297 296 296 296 295 294 294 293 292 291 287
221 227 233 240 245 249 254 260 265 268 273 276 281 288 291 294 299 302 302 302 303 305 307 307 307 307 306 305 304 302 301 299 298 298 296 296 297 295 295 295 295 295 295
223 230 237 241 245 251 257 260 265 269 273 279 284 288 292 296 299 300 302 303 305 306 307 308 308 307 306 304 303 301 300 300 299 299 298 297 297 297 297 297 298 298 297
225 233 237 242 248 254 258 261 265 270 276 282 286 290 292 295 299 302 302 303 305 306 307 308 306 305 304 303 302 301 300 301 300 299 298 299 299 299 299 299 298 298 297
230 236 240 244 249 255 259 263 268 274 280 283 287 291 294 298 301 302 302 303 305 306 307 306 305 303 303 302 302 303 302 301 300 301 300 300 300 299 299 299 299 297 297
233 237 243 248 253 258 263 268 272 277 280 283 288 292 296 299 300 300 303 304 306 306 305 304 302 302 302 302 302 302 302 302 301 302 302 301 300 300 299 299 300 301 301
236 240 245 251 256 261 266 269 273 277 281 286 291 294 297 297 300 301 303 305 304 304 302 302 302 302 302 302 302 303 303 303 303 302 302 302 301 302 303 304 304 302 300
239 244 248 252 258 263 267 272 277 282 286 290 293 294 296 299 300 302 303 303 302 301 301 302 302 303 303 304 304 304 303 303 303 303 303 303 305 305 306 306 304 304 303
242 246 252 255 261 267 271 276 281 285 288 290 293 295 297 299 300 301 301 301 301 302 303 303 304 305 305 305 304 305 305 305 305 305 306 307 307 308 308 307 308 306 305
245 250 255 261 267 271 276 280 284 286 289 292 294 296 297 299 300 300 300 301 302 302 303 305 306 306 306 306 306 305 306 306 307 308 309 308 310 310 309 309 307 305 304
250 255 260 266 271 276 279 281 285 289 291 293 295 297 298 299 299 300 302 302 303 305 306 305 306 307 307 306 307 307 308 308 310 310 310 310 311 310 309 309 308 306 306
256 261 265 270 274 277 281 285 287 290 291 294 297 297 298 299 301 302 303 305 305 305 305 306 307 307 307 308 308 309 310 311 312 312 312 312 313 312 310 310 310 309 307
264 268 270 274 277 281 284 286 288 291 294 295 296 297 299 301 302 304 305 304 304 305 307 307 308 309 310 310 310 312 313 314 314 313 313 313 313 311 312 312 312 310 309
267 270 274 277 280 282 285 288 291 292 293 295 297 300 301 303 304 304 303 304 306 307 308 309 311 311 311 311 312 314 315 315 315 314 314 315 314 314 315 314 313 312 311
270 272 276 280 283 285 288 289 289 292 295 299 300 301 304 303 302 302 304 306 307 309 310 311 312 312 311 312 315 315 315 315 316 315 315 315 316 316 317 315 313 313 313
275 278 280 282 283 284 287 289 292 295 297 299 301 302 301 302 303 305 307 308 309 311 312 312 312 312 312 314 315 315 316 317 315 315 316 317 318 318 317 316 316 316 316
276 277 278 280 283 286 289 292 295 297 299 299 300 301 302 304 306 307 308 310 312 313 313 313 313 313 315 317 317 316 317 317 316 316 317 318 319 318 317 318 318 317 316
274 277 279 282 286 288 291 294 295 297 297 298 300 302 304 306 307 309 312 313 314 314 314 315 315 317 317 319 319 318 318 319 318 319 319 320 318 319 320 320 319 319 322
Height
10707 10713 10716 10719 10721 10724 10727 10729 10733 10736 10734 10735 10735 10733 10729 10726 10723 10720 10718 10715 10712 10708 10704 10700 10698 10695 10690 10686 10682 10678 10674 10673 10671 10667 10662 10657 10651 10650 10643 10639 10633 10628 10624
10700 10705 10707 10711 10713 10716 10719 10722 10725 10726 10727 10726 10725 10724 10720 10717 10714 10712 10709 10706 10703 10699 10695 10691 10687 10684 10681 10676 10672 10668 10663 10658 10658 10654 10650 10644 10634 10633 10627 10620 10615 10610 10606
10694 10697 10700 10703 10706 10710 10712 10716 10718 10718 10718 10717 10716 10714 10712 10709 10706 10703 10700 10696 10693 10689 10685 10681 10677 10673 10668 10664 10660 10656 10651 10644 10640 10638 10635 10632 10626 10619 10607 10600 10592 10587 10582
10686 10689 10693 10696 10700 10704 10706 10709 10710 10710 10709 10708 10706 10705 10703 10700 10698 10693 10690 10686 10683 10679 10675 10670 10666 10662 10657 10652 10647 10642 10637 10632 10624 10616 10614 10612 10610 10606 10606 10590 10573 10565 10558
10677 10681 10686 10690 10693 10696 10699 10701 10703 10703 10701 10700 10698 10696 10694 10691 10688 10684 10680 10675 10672 10668 10663 10659 10654 10648 10643 10637 10631 10627 10621 10615 10608 10602 10593 10585 10577 10575 10580 10584 10566 10551 10537
10669 10674 10678 10683 10685 10688 10691 10693 10694 10694 10693 10692 10690 10687 10685 10681 10677 10673 10669 10664 10659 10654 10650 10645 10640 10634 10628 10622 10615 10608 10601 10593 10586 10579 10572 10565 10557 10548 10541 10540 10536 10530 10517
10661 10666 10671 10675 10677 10680 10683 10685 10685 10685 10683 10682 10680 10678 10674 10671 10667 10662 10658 10653 10647 10641 10635 10630 10625 10618 10611 10603 10595 10587 10580 10571 10562 10554 10545 10536 10527 10520 10512 10506 10505 10499 10489
10653 10659 10664 10667 10670 10672 10675 10676 10676 10675 10674 10672 10670 10667 10664 10659 10654 10650 10645 10640 10634 10628 10621 10614 10607 10600 10592 10584 10575 10566 10557 10547 10538 10529 10520 10511 10498 10488 10477 10468 10461 10466 10459
10647 10652 10656 10660 10662 10665 10667 10667 10666 10665 10664 10662 10659 10655 10651 10646 10642 10637 10631 10625 10618 10612 10604 10596 10589 10581 10572 10563 10554 10544 10534 10523 10513 10503 10494 10482 10470 10458 10445 10432 10422 10415 10428
10639 10645 10650 10653 10654 10657 10657 10657 10656 10654 10653 10650 10647 10643 10638 10633 10628 10622 10616 10609 10602 10595 10586 10578 10569 10559 10549 10540 10531 10521 10509 10499 10488 10478 10467 10454 10443 10430 10416 10404 10392 10378 10370
10633 10638 10642 10643 10645 10647 10647 10647 10645 10643 10641 10638 10634 10630 10625 10619 10613 10607 10600 10592 10584 10576 10567 10557 10547 10536 10527 10517 10508 10497 10487 10475 10463 10451 10441 10427 10414 10402 10387 10375 10362 10349 10330
10626 10630 10632 10635 10638 10637 10637 10636 10634 10632 10629 10626 10621 10616 10612 10605 10599 10591 10583 10574 10566 10557 10547 10537 10526 10515 10504 10494 10485 10475 10463 10451 10439 10425 10413 10399 10386 10372 10358 10345 10333 10317 10301
10619 10622 10624 10627 10628 10626 10626 10625 10623 10621 10617 10612 10608 10603 10597 10590 10583 10575 10566 10557 10547 10537 10527 10516 10504 10494 10483 10473 10462 10452 10440 10427 10413 10399 10387 10374 10360 10345 10329 10314 10300 10283 10265
10611 10612 10615 10617 10618 10616 10615 10613 10611 10609 10604 10600 10595 10589 10582 10575 10567 10558 10549 10539 10528 10517 10505 10494 10484 10473 10462 10451 10440 10429 10417 10403 10387 10373 10360 10344 10328 10314 10298 10282 10263 10244 10225
10602 10604 10606 10608 10607 10606 10603 10601 10599 10597 10593 10587 10581 10574 10567 10558 10550 10540 10530 10519 10508 10497 10486 10476 10463 10450 10440 10429 10418 10406 10393 10378 10364 10347 10331 10313 10294 10277 10257 10239 10225 10199 10179
10594 10595 10597 10597 10596 10595 10593 10590 10587 10583 10579 10573 10566 10558 10549 10541 10532 10522 10512 10500 10488 10477 10466 10453 10442 10430 10417 10405 10392 10380 10368 10353 10336 10321 10303 10281 10261 10242 10223 10200 10179 10157 10138
10586 10587 10588 10587 10586 10584 10581 10578 10575 10570 10564 10557 10550 10541 10532 10522 10513 10502 10492 10480 10468 10456 10444 10431 10420 10407 10393 10381 10367 10355 10340 10324 10305 10287 10267 10247 10223 10202 10184 10166 10144 10121 10101
10576 10577 10576 10575 10574 10571 10568 10565 10560 10553 10547 10541 10533 10524 10514 10504 10493 10482 10472 10461 10448 10436 10424 10411 10398 10386 10370 10357 10343 10328 10312 10293 10272 10252 10230 10208 10190 10170 10150 10137 10119 10097 10079
10565 10566 10565 10563 10561 10558 10553 10549 10544 10538 10532 10523 10515 10505 10495 10484 10474 10464 10453 10441 10430 10416 10404 10390 10378 10365 10348 10330 10314 10298 10280 10259 10242 10219 10192 10171 10158 10141 10123 10109 10092 10074 10058
10554 10555 10553 10551 10547 10542 10538 10534 10528 10522 10514 10505 10496 10486 10476 10466 10456 10446 10435 10423 10411 10399 10386 10371 10356 10341 10325 10305 10285 10263 10243 10229 10212 10186 10161 10142 10126 10110 10093 10081 10068 10053 10039
10541 10540 10538 10535 10532 10529 10525 10519 10511 10503 10496 10486 10477 10468 10459 10449 10439 10427 10417 10405 10393 10380 10367 10354 10336 10316 10296 10274 10254 10233 10210 10188 10174 10152 10136 10120 10102 10085 10073 10058 10046 10033 10019
10528 10526 10524 10522 10518 10514 10507 10500 10494 10485 10477 10470 10461 10452 10442 10432 10422 10411 10398 10386 10377 10363 10348 10333 10314 10291 10267 10243 10226 10204 10179 10157 10138 10124 10108 10095 10079 10064 10052 10038 10026 10015 10004
10514 10511 10509 10506 10500 10494 10489 10483 10476 10469 10462 10453 10445 10434 10425 10415 10404 10393 10381 10369 10356 10343 10328 10311 10292 10270 10245 10222 10201 10178 10156 10136 10115 10096 10084 10071 10060 10044 10034 10022 10009 9999 9990
10497 10495 10491 10488 10482 10478 10473 10467 10461 10454 10446 10437 10428 10419 10408 10397 10386 10374 10363 10349 10335 10319 10301 10283 10264 10244 10220 10199 10179 10156 10136 10118 10096 10080 10064 10052 10041 10028 10016 10007 9997 9987 9979
10481 10479 10476 10472 10469 10463 10458 10452 10446 10438 10430 10422 10412 10403 10393 10382 10370 10356 10342 10327 10308 10290 10273 10253 10232 10213 10194 10174 10154 10133 10118 10101 10081 10067 10051 10037 10026 10015 10005 9994 9985 9977 9970
10468 10465 10463 10459 10455 10450 10445 10438 10430 10422 10415 10406 10398 10388 10378 10366 10353 10340 10322 10299 10281 10260 10237 10216 10198 10181 10158 10147 10132 10111 10094 10079 10062 10049 10036 10025 10013 10003 9994 9985 9977 9970 9964